Погода Колпашево

Погода Колпашево : погода сейчас, прогноз погоды и архив. Всё, что Вы хотите узнать о погоде Колпашево!

Хотите узнать прогноз погоды Колпашево? Тогда Вам сюда: Погода Колпашево

Поиск расширенной информации на нашем сайте:

Другие новости

Новости СМИ2

Главная страница сайта

Новости сайта

03.07.2017

Напоминаем, что на нашем специализированном сайте Метеоцентр.Азия вы можете получить высокодетализированные автоматические прогнозы погоды по пунктам России, СНГ и мира в авиационном формате (включающие направление и скорость ветра, видимость, явления погоды, количество и форму облачности, нижнюю и верхнюю границу облачности).

Рекомендуем: Видео и фото на свадьбу bachinskiy.kiev.ua.

Погода Колпашево - сегодня

Время (UTC), дата Ветер
(°,м/с) 
Видим.   Явления Облачность Т
(°С)
Тd
(°С)
f(%) Тe
(°С)
Pmin
(гПа)
dP
(гПа)
Po
(мм)
O2
(г/м3)
Тmin Tmax R s Состояние
почвы
00 15.06.18 250 (З) 2{10}  10 км  слаб. ливневой дождь  10/10 240 м кучево-дожд. 
[Cb cap]
+11.7 +10.6 93 +14  1004.3  0.8  746  286  +11.2    13    мокрая 
06 15.06.18 240 (ЮЗ) 10 км  слаб. ливневой дождь  9/9 600 м кучево-дожд. 
[Cb cap]
+14.6 +11.3 81 +19  1006.7  1.4  748  284           
09 15.06.18 180 (Ю) 20000 м  {ливн. осадки}  9/9 600 м 
[Sc]
+18.1 +11 63 +22  1006.7  0.1  748  281           
12 15.06.18 130 (ЮВ) 20000 м  {ливн. осадки}  5/3 600 м кучево-дожд., средняя, верхняя 
[Cb cap|Ac trans|Cc]
+19.7 +10.8 56 +23  1006.6  -0.1  748  279    +19.9     
15 15.06.18 тихо ()   20000 м    5/5 300 м кучево-дожд. 
[Cb cap]
+13.7 +12.1 90 +18  1007.3  0.6  749  285           
18 15.06.18 тихо ()   20000 м    8/0 верхняя 
[Cc]
+10 +9.3 95 +10  1007  -0.5  748  289           
21 15.06.18 080 (В) 20000 м    10/1 1000 м верхняя 
[Sc|Ci fib]
+9.1 +8.5 96 +10  1006.6  -0.4  748  290           
00 16.06.18 100 (В) 20000 м    4/4 1000 м 
[Sc]
+14.1 +11.8 86 +19  1006.1  -0.3  748  284  +9        влажная 
03 16.06.18 100 (В) 20000 м    8/0 средняя, верхняя 
[Ac trans|Ci fib]
+18.4 +13 71 +24  1005.5  -0.5  747  280           
06 16.06.18 140 (ЮВ) 20000 м    8/4 600 м кучево-дожд., верхняя 
[Cb cap|Ci fib]
+21.3 +13.9 63 +28  1005.3  -0.1  747  277           
09 16.06.18 130 (ЮВ) 20000 м    8/4 600 м кучево-дожд., верхняя 
[Cb cap|Ci fib]
+23.6 +13.5 53 +30  1004  -1.2  746  274           
12 16.06.18 140 (ЮВ) 2{11}  20000 м  гроза без осадков  9/6 300 м кучево-дожд., верхняя 
[Cb cap|Ci fib]
+19.8 +11.4 58 +24  1003.8  -0.3  746  278    +24       
21 16.06.18 220 (ЮЗ) 20000 м  {ливн. осадки}  4/4 300 м кучево-дожд. 
[Cb cap]
+11.9 +10.4 91 +15  1008  1.2  749  287           
00 17.06.18 120 (ЮВ) 20000 м  {ливн. осадки}  4/0 верхняя 
[Ci fib]
+13.5 +10.5 82 +17  1008.7  0.7  750  286  +10    0.3    влажная 
03 17.06.18 140 (ЮВ) 20000 м    3/0 средняя 
[Ac trans]
+17.4 +10 62 +19  1008.9  0.3  750  282           
06 17.06.18 130 (ЮВ) 20000 м    9/4 600 м кучево-дожд., средняя 
[Cb cap|Ac trans]
+19.7 +10.3 55 +23  1008.6  -0.1  750  280           
09 17.06.18 130 (ЮВ) 20000 м  {ливн. осадки}  9/3 600 м кучево-дожд., средняя 
[Cb cap|Ac trans]
+19.3 +7.3 46 +20  1008.2  -0.5  749  281           
12 17.06.18 130 (ЮВ) 20000 м  {ливн. осадки}  9/6 600 м кучево-дожд., средняя 
[Cb cap|Ac trans]
+19.4 +10 54 +22  1007.2  -1  749  280    +20.4  0.0     
15 17.06.18 тихо ()   20000 м    9/4 600 м средняя 
[Sc|Ac trans]
+16.6 +12 74 +21  1006.1  -1.1  748  282           
18 17.06.18 080 (В) 20000 м    10/8 300 м кучево-дожд., средняя 
[Cb cap|Ac trans]
+16 +11.3 74 +20  1005.2  -1  747  282           
00 18.06.18 110 (В) 20000 м  {гроза, ливн. осадки}  8/3 300 м кучево-дожд., верхняя 
[Cb cap|Ci fib]
+15.1 +14.2 94 +23  1003.9  -0.1  746  282  +13.7    10    мокрая 
03 18.06.18 150 (ЮВ) 20000 м    6/3 600 м верхняя 
[Cu hum|Ci sp]
+19 +14.5 75 +28  1004.5  0.7  747  278           
06 18.06.18 270 (З) 20000 м    10/6 300 м кучево-дожд., верхняя 
[Cb cap|Ci sp]
+21.3 +14.3 64 +29  1003.7  -0.7  746  276           
09 18.06.18 320 (СЗ) 20000 м    8/3 1000 м верхняя 
[Cu hum|Ci sp]
+25.6 +16 55 +36  1002.4  -1.2  745  271           
12 18.06.18 310 (СЗ) 20000 м  в посл. час ливневой дождь{гроза}  10/6 300 м кучево-дожд., верхняя 
[Cb cap|Ci sp]
+23.1 +16.9 68 +35  1001.2  -1.3  744  273    +25.8  0.4     
Время (UTC), дата Ветер
(°,м/с) 
Видим.   Явления Облачность Т
(°С)
Тd
(°С)
f(%) Тe
(°С)
Pmin
(гПа)
dP
(гПа)
Po
(мм)
O2
(г/м3)
Тmin Tmax R s Состояние
почвы

Для получения пояснительной информации подведите курсор к названию столбца.

ПОГОДА Колпашево - архив

Всё, что Вы хотите узнать о погоде Колпашево - удобно и подробно!

Выберите нужную дату (начиная с 1 января 2015* года) и нажмите кнопку "Найти".
Будут отображены архивные сводки погоды по пункту Колпашево, начиная с указанной даты.


Отображать данные в формате CSV (для использования в таблицах Excel)


Внимание! Наш архив погоды предназначен исключительно для личного некоммерческого использования в познавательных целях. Если Вам необходимы официальные справки о состоянии погоды (для производственных, юридических, коммерческих и т.п. целей), обращайтесь в органы Росгидромета.

*Примечание: данная дата относится к архиву по метеостанциям СССР (Россия, СНГ, Балтия).
Архив по метеостанциям Зарубежной Европы и Азии (кроме Китая) хранится 10 дней, по другим регионам земного шара (Китай, Африка, Америка, Австралия, Океания) - 1 день.

Колпашево - район местоположения метеостанции


Название, широта, долгота, высота метеостанции:
Колпашево 58.3°ш. 82.9°д. 75 м над ур. моря [Российская Федерация]

Дополнительная информация

В oтличие oт бoльшинства пoгoдных сайтoв мы публикуем пoдрoбную метеoинфoрмацию в детальнoм прoфессиoнальнoм фoрмате.

Характеристики температуры и влажнoсти вoздуха измеряются на высoте 2 м в тени вдали oт зданий и деревьев.
Скoрoсть ветра измеряется на высoте 10 м (на урoвне рoста челoвека скoрoсть ветра ниже в 1.5-2 раза). Если метеoстанция нахoдится в гoрoде или в лесу, тo скoрoсть ветра занижена на 2-4 м/с пo сравнению с oткрытым местoм. Скoрoсть ветра над акватoриями крупных рек и oзёр, а также на вершинах хoлмoв на 2-5 м/с выше, чем в oбычных услoвиях.
Атмoсфернoе давление в разных тoчках местнoсти мoжет значительнo oтличаться oт давления на метеoстанции, в зависимoсти oт услoвий рельефа (при пoдъёме на 10 м давление пoнижается примернo на 1 мм рт.ст.).